Weather History for Santa Ana, CA

Change the Weather History Date:

Tuesday, March 1, 2011

  Actual Average Record
Temperature  
Mean Temperature 53 °F 58 °F  
Max Temperature 63 °F 67 °F 83 °F (2009)
Min Temperature 43 °F 50 °F 41 °F (2007)
Degree Days  
Heating Degree Days 12 7  
Month to date heating degree days 12 7  
Since 1 July heating degree days 757 913  
Cooling Degree Days 0 0  
Month to date cooling degree days 0 0  
Year to date cooling degree days 4 8  
Growing Degree Days 3 (Base 50)    
Moisture  
Dew Point 39 °F    
Average Humidity 56    
Maximum Humidity 77    
Minimum Humidity 34    
Precipitation  
Precipitation 0.00 in 0.13 in 0.36 in (2004)
Month to date precipitation 0.00 0.13  
Year to date precipitation 2.63 5.99  
Since 1 July precipitation 15.28 10.36  
Snow  
Snow 0.00 in - - ()
Month to date snowfall 0.0  
Year to date snowfall 0.0  
Since 1 July snowfall 0.0  
Snow Depth 0.00 in    
Sea Level Pressure  
Sea Level Pressure 30.15 in    
Wind  
Wind Speed 3 mph (West)    
Max Wind Speed 16 mph    
Max Gust Speed 18 mph    
Visibility 10 miles    
Events      
T = Trace of Precipitation, MM = Missing Value Source: NWS Daily Summary

Daily Weather History Graph

Daily Weather History Graph

Search for Another Location

Airport:

Trip Planner

Search our weather history database for the weather conditions in past years. The results will help you decide how hot, cold, wet, or windy it might be!

Date:

Astronomy

Mar. 01, 2011 Rise Set
Actual Time 6:20 AM PST 5:47 PM PST
Civil Twilight 5:55 AM PST 6:12 PM PST
Nautical Twilight 5:26 AM PST 6:41 PM PST
Astronomical Twilight 4:57 AM PST 7:10 PM PST
Moon 4:22 AM PST (3/1) 3:15 PM PST (3/1)
Length of Visible Light 12h 17m
Length of Day
11h 27m
Waning Crescent, 8% of the Moon is Illuminated
Mar 1
Waning Crescent
Mar 4
New
Mar 12
First Quarter
Mar 19
Full
Mar 26
Last Quarter

Hourly Weather History & Observations

Time (PST) Temp. Windchill Dew Point Humidity Pressure Visibility Wind Dir Wind Speed Gust Speed Precip Events Conditions
12:53 AM 48.0 °F - 41.0 °F 77% 30.18 in 10.0 mi Calm Calm - N/A   Clear
1:53 AM 46.0 °F 44.8 °F 39.9 °F 79% 30.17 in 10.0 mi East 3.5 mph - N/A   Clear
2:53 AM 46.9 °F - 39.0 °F 74% 30.16 in 10.0 mi Calm Calm - N/A   Clear
3:53 AM 45.0 °F - 37.9 °F 76% 30.15 in 10.0 mi Calm Calm - N/A   Clear
4:53 AM 44.1 °F 42.5 °F 37.0 °F 76% 30.15 in 10.0 mi NNE 3.5 mph - N/A   Clear
5:53 AM 44.1 °F - 37.0 °F 76% 30.17 in 10.0 mi Calm Calm - N/A   Clear
6:53 AM 45.0 °F 42.6 °F 37.9 °F 76% 30.18 in 10.0 mi NE 4.6 mph - N/A   Mostly Cloudy
7:53 AM 52.0 °F - 39.0 °F 61% 30.18 in 10.0 mi ENE 3.5 mph - N/A   Mostly Cloudy
8:53 AM 55.0 °F - 43.0 °F 64% 30.17 in 10.0 mi Calm Calm - N/A   Mostly Cloudy
9:53 AM 57.2 °F - 39.2 °F 51% 30.16 in 10.0 mi Calm Calm - N/A   Mostly Cloudy
10:53 AM 60.1 °F - 37.9 °F 44% 30.14 in 10.0 mi Calm Calm - N/A   Mostly Cloudy
11:53 AM 62.6 °F - 42.8 °F 48% 30.14 in 10.0 mi SW 12.7 mph - N/A   Scattered Clouds
12:53 PM 61.0 °F - 37.9 °F 42% 30.14 in 10.0 mi SW 10.4 mph - N/A   Scattered Clouds
1:53 PM 62.1 °F - 34.0 °F 35% 30.13 in 10.0 mi West 6.9 mph - N/A   Scattered Clouds
2:53 PM 62.1 °F - 35.1 °F 37% 30.11 in 10.0 mi WNW 4.6 mph - N/A   Mostly Cloudy
3:53 PM 61.0 °F - 35.1 °F 38% 30.10 in 10.0 mi SW 8.1 mph - N/A   Scattered Clouds
4:53 PM 61.0 °F - 32.0 °F 34% 30.10 in 10.0 mi SW 3.5 mph - N/A   Scattered Clouds
5:53 PM 57.9 °F - 33.1 °F 39% 30.12 in 10.0 mi WSW 5.8 mph - N/A   Mostly Cloudy
6:53 PM 55.0 °F - 39.9 °F 57% 30.13 in 10.0 mi West 4.6 mph - N/A   Mostly Cloudy
7:53 PM 53.6 °F - 42.8 °F 67% 30.13 in 10.0 mi Calm Calm - N/A   Scattered Clouds
8:53 PM 54.0 °F - 41.0 °F 62% 30.15 in 10.0 mi Calm Calm - N/A   Clear
9:53 PM 53.1 °F - 42.1 °F 66% 30.17 in 10.0 mi North 3.5 mph - N/A   Partly Cloudy
10:53 PM 53.1 °F - 42.1 °F 66% 30.15 in 10.0 mi Calm Calm - N/A   Mostly Cloudy
11:53 PM 51.1 °F - 41.0 °F 68% 30.15 in 10.0 mi Calm Calm - N/A   Clear